This is the latest recevied weather packets stored in our database for station/object JF2ZGN-13. If no packets are shown the sender has not sent any weather packets the latest 10 day(s).
| Time | Temp. | Humidity | Pressure | Rain* | Wind** | Luminosity | Snow |
|---|---|---|---|---|---|---|---|
| 1787496871 | 20° C | 58% | 913.6 hPa | 1.52 mm | - | - | - |
| 1787496271 | 20.56° C | 58% | 913.8 hPa | 1.52 mm | - | - | - |
| 1787495670 | 20.56° C | 60% | 913.9 hPa | 1.52 mm | - | - | - |
| 1787495070 | 20.56° C | 62% | 913.9 hPa | 1.52 mm | - | - | - |
| 1787494471 | 20.56° C | 62% | 913.9 hPa | 1.52 mm | - | - | - |
| 1787493869 | 20.56° C | 62% | 914 hPa | 1.52 mm | - | - | - |
| 1787493269 | 20.56° C | 61% | 914.1 hPa | 1.52 mm | - | - | - |
| 1787492668 | 20.56° C | 52% | 914.1 hPa | 1.52 mm | - | - | - |
| 1787492068 | 20.56° C | 52% | 914.1 hPa | 1.52 mm | - | - | - |
| 1787491467 | 20.56° C | 49% | 914.2 hPa | 1.52 mm | - | - | - |
| 1787490867 | 20.56° C | 53% | 914.4 hPa | 1.27 mm | - | - | - |
| 1787490267 | 20.56° C | 50% | 914.3 hPa | 1.27 mm | - | - | - |
| 1787489666 | 20.56° C | 50% | 914.4 hPa | 1.27 mm | - | - | - |
| 1787489065 | 20.56° C | 47% | 914.5 hPa | 1.27 mm | - | - | - |
| 1787488465 | 20.56° C | 74% | 914.5 hPa | 0.76 mm | - | - | - |
| 1787487864 | 20.56° C | 65% | 914.7 hPa | 0.76 mm | - | - | - |
| 1787487264 | 20° C | 83% | 914.7 hPa | 0.51 mm | - | - | - |
| 1787486663 | 20° C | 86% | 914.6 hPa | 0.51 mm | - | - | - |
| 1787486063 | 20° C | 89% | 914.1 hPa | 0.25 mm | - | - | - |
| 1787485463 | 20° C | 89% | 914.6 hPa | 0.25 mm | - | - | - |
| 1787484863 | 20° C | 89% | 914.5 hPa | 0.25 mm | - | - | - |
| 1787484262 | 20° C | 89% | 914.4 hPa | 0.25 mm | - | - | - |
| 1787483661 | 20° C | 89% | 914.4 hPa | 0.25 mm | - | - | - |
| 1787483061 | 20° C | 89% | 914.3 hPa | 0.25 mm | - | - | - |
| 1787482460 | 20° C | 89% | 914.3 hPa | 0.25 mm | - | - | - |
* Rain since midnight (hover to see other rain measurements)
** Current wind speed in m/s (hover to see current wind gust speed)